Regional Weather Roundup
Issued by NWS

Home | Current Version | Previous Version | Graphics & Text | Print | Product List | Glossary On
Versions: 1 2 3 4 5 6 7 8 9 10 11 12 13 14 15 16 17 18 19 20 21 22 23 24 25 26 27 28 29 30 31 32 33 34 35 36 37 38 39 40 41 42 43 44 45 46 47 48 49 50
000
ASUS43 KIND 210009
RWRIN

WEATHER ROUNDUP FOR INDIANA
NATIONAL WEATHER SERVICE INDIANAPOLIS IN
700 PM EST FRI JAN 20 2017

NOTE: "FAIR" INDICATES FEW OR NO CLOUDS BELOW 12,000 FEET WITH NO
SIGNIFICANT WEATHER AND/OR OBSTRUCTIONS TO VISIBILITY.

* - STATION DOES NOT REPORT WEATHER SUCH AS PRECIPITATION OR FOG.

+ - STATION NOT QUALITY CONTROLLED BY THE NATIONAL WEATHER SERVICE.
    USE DATA WITH CAUTION...ESPECIALLY DEWPOINT AND RELATIVE
    HUMIDITY OBSERVATIONS.

INZ001>003-010>013-019-020-210100-
NORTHWEST INDIANA

CITY           SKY/WX    TMP DP  RH WIND       PRES   REMARKS
GARY /AIRPORT/ CLOUDY    45  43  93 CALM      29.67S FOG
KNOX *+        CLOUDY    45  39  81 S6        29.69R
LA PORTE +     FOG       44  44 100 S5        29.69S VSB 3/4
6HR MIN TEMP:  39; 6HR MAX TEMP:  44;

MICHIGAN CITY+ CLOUDY    43  43 100 S3        29.69S FOG
MONTICELLO +   CLOUDY    47  46  95 E3        29.68S
6HR MIN TEMP:  47; 6HR MAX TEMP:  49;

RENSSELAER +   CLOUDY    46  46 100 E5        29.68S FOG
VALPARAISO     CLOUDY    46  46 100 SE8       29.68S FOG
6HR MIN TEMP:  42; 6HR MAX TEMP:  47;


$$

LMZ046-743>745-210100-
SOUTHERN LAKE MICHIGAN

STATION/POSITION TIME  TEMP    WIND        PRES    WAVE
                       AIR SEA DIR/SP/G            HT
                 (UTC) (F)     (DEG/KT/KT) (MB)    (FT)
BURNS HARBOR     2340   45     170/  5/  8 1005.8R
MICHIGAN CITY    2340   41      70/  4/  5   N/A

$$

INZ004-005-014>016-021>024-210100-
NORTH CENTRAL INDIANA

CITY           SKY/WX    TMP DP  RH WIND       PRES   REMARKS
ELKHART        FOG       43  41  93 CALM      29.70R VSB 1
GOSHEN         FOG       45  42  89 S7        29.71R VSB 1/2
6HR MIN TEMP:  41; 6HR MAX TEMP:  45;

LOGANSPORT +   CLOUDY    45  45 100 E6        29.70F
PERU/GRISSOM   CLOUDY    48  48 100 SE3       29.69S
6HR MIN TEMP:  47; 6HR MAX TEMP:  51;

ROCHESTER +    CLOUDY    46  46 100 SE3       29.71R FOG
SOUTH BEND     CLOUDY    42  42 100 SE5       29.70R FOG
6HR MIN TEMP:  39; 6HR MAX TEMP:  42;

WARSAW +       CLOUDY    45  43  93 CALM      29.72R FOG

$$

INZ006>009-017-018-025>027-210100-
NORTHEAST INDIANA

CITY           SKY/WX    TMP DP  RH WIND       PRES   REMARKS
ANGOLA *+      CLOUDY    45  45 100 S3        29.72R VSB 1/2
AUBURN +       CLOUDY    46  45  93 SW3       29.73R FOG
FORT WAYNE     CLOUDY    49  45  86 S7        29.73R
6HR MIN TEMP:  47; 6HR MAX TEMP:  51; 6HR PCP: TRACE;

HUNTINGTON +   CLOUDY    47  46  96 CALM      29.73R
6HR MIN TEMP:  46; 6HR MAX TEMP:  50;

KENDALLVILLE + FOG       45  45 100 SW5       29.72R VSB 1/2

$$

INZ028-029-035-036-043>045-051>053-210100-
WEST CENTRAL INDIANA

CITY           SKY/WX    TMP DP  RH WIND       PRES   REMARKS
CRAWFORDSVL +  CLOUDY    48  48 100 E7        29.68S
6HR MIN TEMP:  47; 6HR MAX TEMP:  49;

GREENCASTLE +  CLOUDY    50  46  87 SE6       29.69S
LAFAYETTE      CLOUDY    49  47  93 SE5       29.67S
6HR MIN TEMP:  48; 6HR MAX TEMP:  50;

TERRE HAUTE    CLOUDY    53  49  86 SE6       29.67R
6HR MIN TEMP:  52; 6HR MAX TEMP:  53;


$$

INZ030>032-037>040-046>048-054>057-064-065-210100-
CENTRAL INDIANA

CITY           SKY/WX    TMP DP  RH WIND       PRES   REMARKS
CP ATTERBURY + CLOUDY    52  46  82 SE6       29.71F
COLUMBUS       CLOUDY    52  52 100 SE6       29.72S
FRANKFORT +    CLOUDY    51  49  92 SE7       29.70F
6HR MIN TEMP:  50; 6HR MAX TEMP:  54;

GREENWOOD *+   CLOUDY    54  49  85 SE6       29.71F
6HR MIN TEMP:  54; 6HR MAX TEMP:  56;

INDIANAPOLIS   CLOUDY    52  47  83 SE7       29.69F
6HR MIN TEMP:  52; 6HR MAX TEMP:  55; 6HR PCP: TRACE;

-EAGLE CREEK   CLOUDY    53  46  77 SE6       29.69S
6HR MIN TEMP:  52; 6HR MAX TEMP:  55; 6HR PCP: TRACE;

KOKOMO +       CLOUDY    49  47  93 SE6       29.71S
6HR MIN TEMP:  49; 6HR MAX TEMP:  51;

MARION +       CLOUDY    48  48 100 E6        29.72F FOG
MT COMFORT *+  CLOUDY    50  46  87 SE6       29.72R
SHELBYVILLE    CLOUDY    52  47  83 SE6       29.71S
6HR MIN TEMP:  52; 6HR MAX TEMP:  57;

ZIONSVILLE +   CLOUDY    49  46  89 CALM      29.71R
6HR MIN TEMP:  49; 6HR MAX TEMP:  52;


$$

INZ033-034-041-042-049-050-058-059-210100-
EAST CENTRAL INDIANA

CITY           SKY/WX    TMP DP  RH WIND       PRES   REMARKS
MUNCIE         CLOUDY    54  47  77 S3        29.72R
6HR MIN TEMP:  54; 6HR MAX TEMP:  55; 6HR PCP: TRACE;


$$

INZ060-061-067>069-081>083-085>088-210100-
SOUTHWEST INDIANA

CITY           SKY/WX    TMP DP  RH WIND       PRES   REMARKS
EVANSVILLE     MOCLDY    59  51  75 S7        29.69R
6HR MIN TEMP:  58; 6HR MAX TEMP:  62;

HUNTINGBURG *+ MOCLDY    55  52  88 S6        29.70R
6HR MIN TEMP:  55; 6HR MAX TEMP:  61;

WASHINGTON +   MOCLDY    53  50  89 SE6       29.67S
6HR MIN TEMP:  53; 6HR MAX TEMP:  58;


$$

INZ062-063-066-070>080-084-089>092-210100-
SOUTH CENTRAL AND SOUTHEAST INDIANA

CITY           SKY/WX    TMP DP  RH WIND       PRES   REMARKS
BLOOMINGTON    MOCLDY    52  47  83 CALM      29.69S
6HR MIN TEMP:  52; 6HR MAX TEMP:  55;

MADISON *+     PTCLDY    55  46  71 CALM      29.76R
NORTH VERNON + CLOUDY    55  54  94 SE5       29.73S
SEYMOUR +      CLOUDY    57  50  77 SE6       29.71S

$$





USA.gov is the U.S. government's official web portal to all federal, state and local government web resources and services.